Doha, Qatar

7:56 PM +03 on December 12, 2017 (GMT +0300)
Doha International

Weather History for OTBD - July, 2012

Change the Weather History Date:

Wednesday, July 25, 2012

  Actual Average Record
Temperature  
Mean Temperature 98 °F -  
Max Temperature 106 °F 105 °F 114 °F (2004)
Min Temperature 90 °F 84 °F 84 °F (2005)
Cooling Degree Days 33    
Growing Degree Days 48 (Base 50)    
Moisture  
Dew Point 79 °F    
Average Humidity 59    
Maximum Humidity 84    
Minimum Humidity 26    
Precipitation  
Precipitation 0.00 in 0.00 in - ()
Sea Level Pressure  
Sea Level Pressure 29.42 in    
Wind  
Wind Speed 6 mph ()    
Max Wind Speed 12 mph    
Max Gust Speed -    
Visibility 4.1 miles    
Events      
Averages and records for this station are not official NWS values.
T = Trace of Precipitation, MM = Missing Value Source: Averaged Metar Reports

Daily Weather History Graph

Daily Weather History Graph

Search for Another Location

Airport or City:

Trip Planner

Search our weather history database for the weather conditions in past years. The results will help you decide how hot, cold, wet, or windy it might be!

Date:

Astronomy

Jul. 25, 2012 Rise Set
Actual Time 4:57 AM +03 6:22 PM +03
Civil Twilight 4:32 AM +03 6:47 PM +03
Nautical Twilight 4:02 AM +03 7:17 PM +03
Astronomical Twilight 3:32 AM +03 7:47 PM +03
Moon 10:47 AM +03 (7/25) 10:24 PM +03 (7/25)
Length of Visible Light 14h 14m
Length of Day
13h 24m
Waxing Crescent, 39% of the Moon is Illuminated
Jul 25
Waxing Crescent
Jul 26
First Quarter
Aug 2
Full
Aug 9
Last Quarter
Aug 17
New

Hourly Weather History & Observations

Time (+03) Temp. Heat Index Dew Point Humidity Pressure Visibility Wind Dir Wind Speed Gust Speed Precip Events Conditions
12:00 AM 93.2 °F 120.9 °F 84.2 °F 75% 29.39 in 4.3 mi Variable 2.3 mph - N/A   Unknown
12:30 AM 93.2 °F 120.9 °F 84.2 °F 75% 29.39 in 3.7 mi NE 3.5 mph - N/A   Unknown
1:00 AM 93.2 °F 120.9 °F 84.2 °F 75% 29.39 in 3.7 mi NNE 4.6 mph - N/A   Unknown
1:30 AM 93.2 °F 120.9 °F 84.2 °F 75% 29.39 in 3.7 mi NE 5.8 mph - N/A   Unknown
2:00 AM 93.2 °F 120.9 °F 84.2 °F 75% 29.39 in 3.7 mi NE 4.6 mph - N/A   Unknown
2:30 AM 91.4 °F 117.8 °F 84.2 °F 79% 29.39 in 3.7 mi NE 4.6 mph - N/A   Unknown
3:00 AM 92 °F - 85 °F 77% 29.39 in 4 mi NNE 3.5 mph - -   Haze
3:00 AM 91.4 °F 122.4 °F 86.0 °F 84% 29.39 in 3.7 mi NNE 3.5 mph - N/A   Unknown
3:30 AM 91.4 °F 117.8 °F 84.2 °F 79% 29.39 in 3.7 mi NNE 4.6 mph - N/A   Unknown
4:00 AM 91.4 °F 122.4 °F 86.0 °F 84% 29.39 in 3.7 mi NE 5.8 mph - N/A   Partly Cloudy
5:00 AM 91.4 °F 122.4 °F 86.0 °F 84% 29.42 in 3.1 mi ENE 6.9 mph - N/A   Haze
5:30 AM 91.4 °F 122.4 °F 86.0 °F 84% 29.42 in 3.1 mi East 6.9 mph - N/A   Haze
6:00 AM 91.4 °F 122.4 °F 86.0 °F 84% 29.42 in 3.7 mi East 5.8 mph - N/A   Unknown
6:30 AM 93.2 °F 120.9 °F 84.2 °F 75% 29.44 in 3.7 mi ESE 5.8 mph - N/A   Unknown
9:00 AM 101 °F - 76 °F 36% 29.47 in 5 mi ESE 6.9 mph - -   Widespread Dust
9:00 AM 100.4 °F 113.6 °F 75.2 °F 44% 29.44 in 5.0 mi ESE 6.9 mph - N/A   Unknown
9:30 AM 102.2 °F 108.4 °F 68.0 °F 33% 29.44 in 5.6 mi ESE 11.5 mph - N/A   Unknown
10:00 AM 104.0 °F 114.0 °F 71.6 °F 35% 29.44 in - ESE 9.2 mph - N/A   Clear
10:30 AM 105.8 °F 109.8 °F 64.4 °F 26% 29.44 in - SE 9.2 mph - N/A   Clear
11:00 AM 105.8 °F 114.2 °F 69.8 °F 31% 29.44 in - East 8.1 mph - N/A   Clear
11:30 AM 105.8 °F 109.8 °F 64.4 °F 26% 29.44 in - East 8.1 mph - N/A   Clear
12:00 PM 105.8 °F 113.2 °F 68.0 °F 30% 29.44 in 5.6 mi East 6.9 mph - N/A   Unknown
12:30 PM 105.8 °F 116.1 °F 71.6 °F 33% 29.44 in 5.0 mi East 8.1 mph - N/A   Unknown
1:00 PM 104.0 °F 114.0 °F 71.6 °F 35% 29.42 in 4.3 mi ENE 8.1 mph - N/A   Unknown
1:30 PM 104.0 °F 118.9 °F 75.2 °F 40% 29.42 in 3.7 mi NE 8.1 mph - N/A   Unknown
2:00 PM 104.0 °F 116.8 °F 73.4 °F 38% 29.42 in 4.3 mi NE 6.9 mph - N/A   Unknown
2:30 PM 104.0 °F 116.8 °F 73.4 °F 38% 29.42 in 4.3 mi NE 10.4 mph - N/A   Unknown
3:00 PM 103 °F - 74 °F 31% 29.42 in 4 mi NE 9.2 mph - -   Widespread Dust
3:00 PM 102.2 °F 116.3 °F 75.2 °F 42% 29.42 in 3.7 mi NE 9.2 mph - N/A   Unknown
3:30 PM 102.2 °F 116.3 °F 75.2 °F 42% 29.42 in 3.7 mi NE 8.1 mph - N/A   Unknown
4:00 PM 102.2 °F 114.4 °F 73.4 °F 40% 29.42 in 3.7 mi NE 8.1 mph - N/A   Unknown
4:30 PM 102.2 °F 116.3 °F 75.2 °F 42% 29.42 in 3.7 mi NNE 8.1 mph - N/A   Unknown
5:00 PM 100.4 °F 116.5 °F 77.0 °F 47% 29.42 in 3.7 mi NNE 8.1 mph - N/A   Unknown
5:30 PM 100.4 °F 119.5 °F 78.8 °F 50% 29.42 in 3.7 mi NNE 8.1 mph - N/A   Unknown
6:00 PM 98.6 °F 117.2 °F 78.8 °F 53% 29.42 in 3.7 mi NE 9.2 mph - N/A   Unknown
6:30 PM 96.8 °F 121.7 °F 82.4 °F 63% 29.42 in 3.7 mi NNE 8.1 mph - N/A   Unknown
7:00 PM 96.8 °F 121.7 °F 82.4 °F 63% 29.42 in 3.7 mi NE 6.9 mph - N/A   Unknown
7:30 PM 95.0 °F 123.7 °F 84.2 °F 71% 29.42 in 3.7 mi NNE 4.6 mph - N/A   Unknown
8:00 PM 95.0 °F 123.7 °F 84.2 °F 71% 29.44 in 3.7 mi NNE 6.9 mph - N/A   Unknown
8:30 PM 95.0 °F 128.0 °F 86.0 °F 75% 29.44 in 4.3 mi North 6.9 mph - N/A   Unknown
9:00 PM 94 °F - 87 °F 74% 29.45 in 4 mi North 6.9 mph - -   Haze
9:00 PM 95.0 °F 128.0 °F 86.0 °F 75% 29.44 in 4.3 mi North 6.9 mph - N/A   Unknown
9:30 PM 95.0 °F 123.7 °F 84.2 °F 71% 29.44 in 5.0 mi NNE 6.9 mph - N/A   Unknown
10:00 PM 95.0 °F 123.7 °F 84.2 °F 71% 29.44 in 5.0 mi North 6.9 mph - N/A   Unknown
10:30 PM 95.0 °F 123.7 °F 84.2 °F 71% 29.44 in 5.0 mi North 5.8 mph - N/A   Unknown
11:00 PM 93.2 °F 120.9 °F 84.2 °F 75% 29.44 in 5.0 mi NNE 6.9 mph - N/A   Unknown
11:30 PM 93.2 °F 120.9 °F 84.2 °F 75% 29.44 in 5.0 mi NNE 9.2 mph - N/A   Unknown